AirNav   Bose ProFlight Series 2 Headset
 
 1109 users online  

42VA Virginia Beach Airport
Virginia Beach, Virginia, USA

GOING TO VIRGINIA BEACH?


FAA INFORMATION EFFECTIVE 27 FEBRUARY 2020

Location

FAA Identifier: 42VA
Lat/Long: 36-40-44.0550N 076-01-57.9950W
36-40.734250N 076-01.966583W
36.6789042,-76.0327764
(estimated)
Elevation: 15 ft. / 5 m (estimated)
Variation: 10W (1990)
From city: 4 miles SE of VIRGINIA BEACH, VA
Time zone: UTC -5 (UTC -4 during Daylight Saving Time)
Zip code: 23457

Airport Operations

Airport use: Private use. Permission required prior to landing
Activation date: 04/1993
Control tower: no
ARTCC: WASHINGTON CENTER
FSS: LEESBURG FLIGHT SERVICE STATION
Attendance: UNATNDD
Wind indicator: yes
Segmented circle: no

Airport Communications

WX ASOS at NTU (9 nm N): PHONE DSN 433-3619 or 757-433-3619
WX AWOS-3 at CPK (14 nm W): 123.675 (757-204-4290)
WX ASOS at ORF (15 nm NW): PHONE 757-460-9348
WX AWOS-3 at ONX (17 nm S): 119.775 (252-453-8939)

Nearby radio navigation aids

VOR radial/distance  VOR name  Freq  Var
ORFr155/15.1NORFOLK VORTAC116.9007W
ECGr022/26.2ELIZABETH CITY VOR/DME112.5007W

 
NDB name  Hdg/Dist  Freq  Var  ID
INGLE142/14.332909WOR --- .-.
WOODVILLE037/28.025410WLLW .-.. .-.. .--

Airport Services

Runway Information

Runway 11/29

Dimensions: 4845 x 190 ft. / 1477 x 58 m
Surface: turf, in good condition
RUNWAY 11  RUNWAY 29
Latitude: 36-40.824167N36-40.644333N
Longitude: 076-02.449500W076-01.483667W
Elevation: 10.0 ft.9.0 ft.
Traffic pattern: leftleft

Airport Ownership and Management from official FAA records

Ownership: Privately-owned
Owner: VIRGINIA BEACH ARPT, LLC
4455 SOUTH BLVD
VIRGINIA BEACH, VA 23452
Phone 757-490-3157
Manager: GERALD YAGEN
4455 SOUTH BLVD
VIRGINIA BEACH, VA 23452
Phone 757-490-3157
EXTENSION 500.

Airport Operational Statistics

Aircraft based on the field: 54
Single engine airplanes: 50
Multi engine airplanes: 4
    

Additional Remarks

AWOS - PHONE 757-204-2683, FREQUENCY 119.925
FOR CD CTC WASHINGTON ARTCC AT 703-771-3587.

Instrument Procedures

There are no published instrument procedures at 42VA.

Some nearby airports with instrument procedures:

KNTU - Oceana Naval Air Station (Apollo Soucek Field) (9 nm N)
KCPK - Chesapeake Regional Airport (14 nm W)
KORF - Norfolk International Airport (15 nm NW)
KONX - Currituck County Regional Airport (17 nm S)
KNGU - Norfolk Naval Station (Chambers Field) (20 nm NW)
 
Loc | Ops | Rwys | IFR | FBO | Links
Com | Nav | Svcs | Stats | Notes
Area around 42VA (Virginia Beach Airport)
 
Road maps at: MapQuest Bing Google
 
Aerial photo
WARNING: Photo may not be current or correct
Aerial photo of 42VA (Virginia Beach Airport)
Photo by Jerry Yagen
Photo taken 10-Nov-2012
looking east.

Do you have a better or more recent aerial photo of Virginia Beach Airport that you would like to share? If so, please send us your photo.

 
Sectional chart

 
Airport distance calculator
Flying to Virginia Beach Airport? Find the distance to fly.

From to 42VA

Sunrise and sunset
Times for 27-Feb-2020
 Local
(UTC-5)
 Zulu
(UTC)
Morning civil twilight06:1311:13
Sunrise06:3911:39
Sunset17:5522:55
Evening civil twilight18:2123:21

Current date and time
Zulu (UTC)  28-Feb-2020 01:06:54
Local (UTC-5)  27-Feb-2020 20:06:54
 
METAR
KNFE 
5nm W 
280056Z AUTO VRB03KT 10SM CLR 07/M10 A3000 RMK AO2 SLP160 T00721100
KNTU 
8nm N 
280056Z 28011G17KT 10SM CLR 06/M10 A2998 RMK AO2 SLP153 T00611100
KCPK 
14nm W 
280055Z AUTO 27006KT 10SM CLR 04/M09 A3001 RMK AO2 T00411088
KORF 
16nm NW 
280051Z VRB06KT 10SM CLR 07/M08 A2998 RMK AO2 SLP152 T00721083
KONX 
17nm S 
280055Z AUTO 24005KT 10SM CLR 06/M05 A3001 RMK AO2 T00571050
KNGU 
18nm NW 
272359Z 27015G22KT 10SM CLR 08/M09 A2998 RMK AO2 SLP151 T00781089 10106 20078 53029
TAF
KNTU 
8nm N 
2723/2823 27014G24KT 9999 SKC QNH2988INS FM281500 24014G24KT 9999 BKN050 BKN180 QNH2991INS T03/2810Z T09/2819Z FN20051
KORF 
16nm NW 
271720Z 2718/2818 28013G23KT P6SM FEW060 FM272300 25011G18KT P6SM SKC FM281600 23012G20KT P6SM BKN120
KNGU 
18nm NW 
2723/2823 28011G20KT 9999 SKC QNH2989INS FM281000 25009KT 9999 FEW260 QNH3002INS FM281500 24012G20KT 9999 FEW050 BKN100 QNH2989INS T01/2811Z T11/2819Z FN20002
NOTAMs
Click for the latest NOTAMs
NOTAMs are issued by the DoD/FAA and will open in a separate window not controlled by AirNav.

 

 
 

Would you like to see your business listed on this page?

 If your business provides an interesting product or service to pilots, flight crews, aircraft, or users of the Virginia Beach Airport, you should consider listing it here.  To start the listing process, click on the button below
 
Add a business
 

Other Pages about Virginia Beach Airport

www.vbairport.com
Military Aviation Museum
www.fighterfactory.com
 
Update a link
 
Copyright © AirNav, LLC. All rights reserved. Privacy Policy  Contact